#timestamp,LO_Frequency,Hit,StdDev 
1711234815.8,286046998.8,N
1711234835.7,286047000.1,N
1711234855.5,286047000.7,N
1711234875.4,286047002.5,N
1711234895.2,286047003.9,N
1711234915.0,286047005.6,N
1711234915.9,286047005.6,N
1711234935.8,286047005.4,N
1711234955.6,286047006.7,N
1711234975.5,286047009.2,N
1711234995.3,286047006.2,N
1711235015.1,286047004.3,N
1711235035.9,286047004.1,N
1711235055.7,286046995.6,N
1711235075.5,286046993.5,N
1711235095.4,286046993.3,N
1711235115.2,286046995.3,N
1711235135.1,286047000.4,N
1711235136.0,286047000.4,N
1711235155.8,286047001.8,N
1711235175.6,286047007.4,N
1711235195.5,286047012.1,N
1711235215.3,286047013.4,N
1711235235.2,286047012.8,N
1711235255.9,286047010.8,N
1711235275.7,286047005.5,N
1711235295.6,286047000.5,N
1711235315.4,286046997.6,N
1711235335.2,286046997.7,N
1711235355.1,286046996.6,N
1711235356.0,286046996.6,N
1711235375.8,286047000.5,N
1711235395.7,286047004.0,N
1711235415.5,286047003.3,N
1711235435.3,286047005.3,N
1711235455.2,286047008.5,N
1711235475.9,286047011.1,N
1711235495.7,286047011.4,N
1711235515.6,286047017.1,N
1711235535.4,286047022.6,Y
1711235555.2,286047026.6,P
1711235575.1,286047029.3,N
1711235576.0,286047029.3,N
1711235595.8,286047029.7,N
1711235615.7,286047030.5,Y
1711235635.5,286047011.0,P
1711235655.3,286047017.9,N
1711235675.2,286047026.3,P
1711235695.0,286047028.0,Y
1711235695.9,286047028.0,P
1711235715.8,286047009.5,N
1711235735.6,286047008.5,N
1711235755.4,286047004.7,N
1711235775.3,286046998.1,N
1711235795.1,286046999.7,N
1711235815.8,286046996.6,N
1711235835.7,286046988.6,N
1711235855.5,286046985.5,N
1711235875.4,286046977.6,N
1711235895.2,286046971.4,N
1711235915.0,286046967.6,N
1711235915.9,286046967.6,N
1711235935.8,286046967.2,N
1711235955.6,286046964.2,N
1711235975.5,286046962.4,N
1711235995.3,286046958.4,N
1711236015.1,286046958.7,N
1711236035.9,286046956.2,N
1711236055.7,286046949.0,N
1711236075.5,286046947.5,N
1711236095.4,286046949.0,N
1711236115.2,286046955.8,N
1711236135.1,286046964.3,N
1711236136.0,286046964.3,N
1711236155.8,286046964.2,N
1711236175.6,286046968.0,N
1711236195.5,286046975.9,N
1711236215.3,286046976.4,N
1711236235.2,286046973.1,N
1711236255.9,286046980.1,N
1711236275.7,286046973.8,N
1711236295.6,286046978.6,N
1711236315.4,286046972.2,N
1711236335.2,286046972.7,N
1711236355.1,286046972.3,N
1711236356.0,286046972.3,N
1711236375.8,286046971.6,N
1711236395.7,286046974.4,N
1711236415.5,286046971.0,Y
1711236435.3,286047004.1,P
1711236455.2,286047003.1,N
1711236475.0,286047005.1,N
1711236475.9,286047005.1,N
1711236495.8,286047001.5,N
1711236515.6,286047003.9,N
1711236535.4,286047007.4,N
1711236555.3,286047004.0,N
1711236575.1,286047002.0,N
1711236595.8,286046999.8,N
1711236615.7,286047001.4,N
1711236635.5,286047009.2,N
1711236655.4,286047006.7,N
1711236675.2,286047005.3,N
1711236695.0,286047008.7,N
1711236695.9,286047008.7,N
1711236715.8,286047003.0,N
1711236735.6,286046999.0,N
1711236755.4,286046997.1,N
1711236775.3,286046995.8,N
1711236795.1,286046994.7,N
1711236815.9,286046990.9,N
1711236835.7,286046989.8,N
1711236855.5,286046982.6,N
1711236875.4,286046980.6,N
1711236895.2,286046979.7,N
1711236915.0,286046977.9,N
1711236916.0,286046977.9,N
1711236935.8,286046975.8,N
1711236955.6,286046976.4,N
1711236975.5,286046973.2,N
1711236995.3,286046974.3,N
1711237015.2,286046979.5,N
1711237035.9,286046986.4,N
1711237055.7,286046982.0,N
1711237075.6,286046978.9,N
1711237095.4,286046979.0,N
1711237115.3,286046979.3,N
1711237135.1,286046984.2,N
1711237136.0,286046984.2,N
1711237155.8,286046990.9,N
1711237175.7,286046993.5,N
1711237195.5,286046996.3,N
1711237215.4,286046995.0,N
1711237235.2,286046994.0,N
1711237255.0,286046996.0,N
1711237256.0,286046996.0,N
1711237275.8,286046994.3,N
1711237295.6,286046965.8,Y
1711237315.5,286047006.5,P
1711237335.3,286047003.1,N
1711237355.1,286047003.1,N
1711237375.9,286046996.7,N
1711237395.7,286046992.3,N
1711237415.6,286046992.7,N
1711237435.4,286046987.4,N
1711237455.2,286046985.8,N
1711237475.1,286046986.2,N
1711237476.0,286046986.2,N
1711237495.8,286046989.9,N
1711237515.7,286046994.0,N
1711237535.5,286046991.2,N
1711237555.3,286046990.9,N
1711237575.2,286046991.3,N
1711237595.0,286046984.1,N
1711237595.9,286046984.1,N
1711237615.7,286046984.3,N
1711237635.6,286046982.2,N
1711237655.4,286046985.5,N
1711237675.3,286046984.7,N
1711237695.1,286046981.2,N
1711237696.0,286046981.2,N
1711237715.8,286046980.1,N
1711237735.7,286046980.9,N
1711237755.5,286046984.8,N
1711237775.3,286046987.1,N
1711237795.2,286046993.2,N
1711237815.0,286046992.4,N
1711237815.9,286046992.4,N
1711237835.8,286046992.4,N
1711237855.6,286046995.1,N
1711237875.4,286046997.0,N
1711237895.3,286047000.0,N
1711237915.1,286047000.6,N
1711237935.8,286047003.9,N
1711237955.7,286047007.3,N
1711237975.5,286047004.9,N
1711237995.4,286047005.8,N
1711238015.2,286047005.1,N
1711238035.0,286047006.5,N
1711238035.9,286047006.5,N
1711238055.8,286047003.3,N
1711238075.6,286047011.7,N
1711238095.4,286047008.8,N
1711238115.3,286047003.8,N
1711238135.1,286046999.0,N
1711238155.9,286046995.6,N
1711238175.7,286046993.7,N
1711238195.5,286046997.1,N
1711238215.4,286046995.8,N
1711238235.2,286046992.9,N
1711238255.0,286046992.2,N
1711238255.9,286046992.2,N
1711238275.8,286046995.1,N
1711238295.6,286047002.3,N
1711238315.5,286047006.5,N
1711238335.3,286047006.7,N
1711238355.1,286047007.9,N
1711238375.9,286047006.5,N
1711238395.7,286047006.6,N
